SCP
0 0 0 0 0 0 0 0 0 0 0 0 0 0 0 0 0 0 0 0 0 0 0 0 0 0 1 1 1 1 1 1 1 2 2 1 1 1 1 1 0 0 0 0
0 0 0 0 0 0 0 0 0 0 0 0 0 0 0 0 0 0 0 0 0 0 0 0 0 0 0 1 1 1 1 1 1 2 2 2 1 1 1 0 0 0 0 0
0 0 0 0 0 0 0 0 0 0 0 0 0 0 0 0 0 0 0 0 0 0 0 0 0 0 0 0 1 1 0 0 1 1 2 2 1 1 1 0 0 0 0 0
0 0 0 0 0 0 0 0 0 0 0 0 0 0 0 0 0 0 0 0 0 0 0 0 0 0 0 0 0 1 1 0 1 1 1 2 1 1 1 1 1 0 0 0
0 0 0 0 0 0 0 0 0 0 0 0 0 0 0 0 0 0 0 0 0 0 0 0 0 0 0 0 0 0 1 0 0 1 1 2 2 1 1 1 1 1 0 0
0 0 0 0 0 0 0 0 0 0 0 0 0 0 0 0 0 0 0 0 0 0 0 0 0 0 0 0 0 0 0 0 0 0 1 1 2 2 2 1 1 1 1 0
0 0 0 0 0 0 0 0 0 0 0 0 0 0 0 0 0 0 0 0 0 0 0 0 0 0 0 0 0 0 0 0 0 0 1 1 2 2 2 1 1 1 1 0
0 0 0 0 0 0 0 0 0 0 0 0 0 0 0 0 0 0 0 0 0 0 0 0 0 0 0 0 0 0 0 0 0 0 0 1 1 1 1 1 1 1 1 1
0 0 0 0 0 0 0 0 0 0 0 0 0 0 0 0 0 0 0 0 0 0 0 0 0 0 0 0 0 0 0 0 0 0 0 1 1 1 1 1 1 1 1 1
0 0 0 0 0 0 0 0 0 0 0 0 0 0 0 0 0 0 0 0 0 0 0 0 0 0 0 0 0 0 0 0 0 0 0 0 0 1 1 1 1 1 1 1
0 0 0 0 0 0 0 0 0 0 0 0 0 0 0 0 0 0 0 0 0 0 0 0 0 0 0 0 0 0 0 0 0 0 0 0 0 0 0 0 0 1 1 1
0 0 0 0 0 0 0 0 0 0 0 0 0 0 0 0 0 0 0 0 0 0 0 0 0 0 0 0 0 0 0 0 0 0 0 0 0 0 0 0 0 0 0 0
0 0 0 0 0 0 0 0 0 0 0 0 0 0 0 0 0 0 0 0 0 0 0 0 0 0 0 0 0 0 0 0 0 0 0 0 0 0 0 0 0 0 0 0
0 0 0 0 0 0 0 0 0 0 0 0 0 0 0 0 0 0 0 0 0 0 0 0 0 0 0 0 0 0 0 0 0 0 0 0 0 0 0 0 0 0 0 0
0 0 0 0 0 0 0 0 0 0 0 0 0 0 0 0 0 0 0 0 0 0 0 0 0 0 0 0 0 0 0 0 0 0 0 0 0 0 0 0 0 0 0 0
0 0 0 0 0 0 0 0 0 0 0 0 0 0 0 0 0 0 0 0 0 0 0 0 0 0 0 0 0 0 0 0 0 0 0 0 0 0 0 0 0 0 0 0
0 0 0 0 0 0 0 0 0 0 0 0 0 0 0 0 0 0 0 0 0 0 0 0 0 0 0 0 0 0 0 0 0 0 0 0 0 0 0 0 0 0 0 0
0 0 0 0 0 0 0 0 0 0 0 0 0 0 0 0 0 0 0 0 0 0 0 0 0 0 0 0 0 0 0 0 0 0 0 0 0 0 0 0 0 0 0 0
0 0 0 0 0 0 0 0 0 0 0 0 0 0 0 0 0 0 0 0 0 0 0 0 0 0 0 0 0 0 0 0 0 0 0 0 0 0 0 0 0 0 0 0
0 0 0 0 0 0 0 0 0 0 0 0 0 0 0 0 0 0 0 0 0 0 0 0 0 0 0 0 0 0 0 0 0 0 0 0 0 0 0 0 0 0 0 0
0 0 0 0 0 0 0 0 0 0 0 0 0 0 0 0 0 0 0 0 0 0 0 0 0 0 0 0 0 0 0 0 0 0 0 0 0 0 0 0 0 0 0 0
0 0 0 0 0 0 0 0 0 0 0 0 0 0 0 0 0 0 0 0 0 0 0 0 0 0 0 0 0 0 0 0 0 0 0 0 0 0 0 0 0 0 0 0
0 0 0 0 0 0 0 0 0 0 0 0 0 0 0 0 0 0 0 0 0 0 0 0 0 0 0 0 0 0 0 0 0 0 0 0 0 0 0 0 0 0 0 0
0 0 0 0 0 0 0 0 0 0 0 0 0 0 0 0 0 0 0 0 0 0 0 0 0 0 0 0 0 0 0 0 0 0 0 0 0 0 0 0 0 0 0 0
0 0 0 0 0 0 0 0 0 0 0 0 0 0 0 0 0 0 0 0 0 0 0 0 0 0 0 0 0 0 0 0 0 0 0 0 0 0 0 0 0 0 0 0
0 0 0 0 0 0 0 0 0 0 0 0 0 0 0 0 0 0 0 0 0 0 0 0 0 0 0 0 0 0 0 0 0 0 0 0 0 0 0 0 0 0 0 0
Wind_Speed
4 5 3 2 1 1 3 3 2 1 2 2 1 3 3 2 2 3 3 3 4 4 6 6 5 4 4 3 2 2 2 1 1 1 2 2 2 2 2 2 2 3 3 3
5 5 2 1 2 3 3 3 1 0 3 2 1 3 2 2 2 3 4 4 5 6 6 6 6 6 5 4 3 3 2 2 1 2 2 2 2 2 2 2 2 2 3 3
6 3 2 2 3 2 2 2 2 1 2 1 3 3 2 1 1 2 3 4 5 5 6 6 6 5 5 5 4 3 3 2 1 2 1 1 1 1 2 2 2 2 3 3
4 2 1 3 2 1 1 1 2 2 2 0 2 3 2 1 2 3 4 5 6 6 6 5 6 6 5 5 5 4 3 2 2 1 1 2 2 3 3 2 2 2 2 2
4 3 3 3 2 1 0 0 1 1 1 2 1 4 1 1 3 4 4 5 5 6 6 6 6 5 5 5 5 4 3 3 2 2 1 2 2 3 2 2 3 3 2 3
3 2 2 2 2 1 1 1 2 1 2 3 2 4 2 1 3 4 4 4 5 5 5 6 6 5 5 6 5 4 4 4 4 3 2 2 3 3 3 3 2 3 2 2
3 3 3 2 1 1 1 1 1 1 2 2 1 4 3 1 3 3 4 4 5 5 5 6 6 6 6 6 6 5 4 4 4 3 3 3 3 3 3 3 3 3 2 2
2 2 4 4 2 1 1 2 1 1 2 1 2 4 1 1 2 2 3 4 4 4 5 5 6 5 5 6 6 6 5 5 5 4 3 3 3 2 2 3 3 3 3 3
1 1 2 3 3 1 1 1 2 1 1 2 3 3 3 1 2 2 3 4 4 4 5 5 5 5 5 5 5 5 5 5 5 5 4 4 4 3 3 3 3 3 3 3
1 0 2 3 0 3 2 1 1 1 1 3 3 4 2 2 3 3 3 4 4 4 5 5 5 5 5 5 5 5 5 5 5 5 5 4 5 5 4 4 4 4 4 3
1 1 1 1 1 1 1 1 1 1 1 2 3 2 1 2 2 3 3 3 3 4 5 5 4 4 4 4 4 4 5 5 5 5 5 4 4 5 5 4 5 4 4 4
1 1 0 1 1 2 1 1 2 2 2 3 3 4 1 1 2 2 3 3 4 4 5 5 5 4 4 4 4 4 4 4 4 4 4 4 4 4 4 5 5 5 4 4
2 2 0 1 2 0 1 2 2 1 1 3 4 4 2 1 2 3 4 4 4 4 5 4 4 4 4 4 4 4 4 4 4 4 4 4 4 4 4 5 5 5 5 5
2 1 2 3 1 1 3 4 4 3 4 5 8 9 7 6 6 5 5 4 4 4 4 4 4 4 4 4 4 4 4 4 4 4 4 4 4 4 4 4 4 5 5 5
1 1 1 3 4 4 6 8 8 8 8 8 8 9 11 9 7 6 5 4 4 4 4 4 4 4 4 4 4 4 4 4 4 4 4 4 4 4 4 4 5 5 5 5
1 2 0 3 2 4 7 10 11 10 10 11 12 13 11 9 6 5 5 5 5 5 5 5 5 5 5 4 4 4 4 4 4 3 4 4 4 4 4 4 4 4 4 4
2 3 1 3 4 4 8 9 10 8 8 9 11 10 6 6 6 6 5 5 6 6 5 5 5 5 5 4 4 4 4 3 3 3 4 4 4 4 4 4 4 4 4 4
4 3 1 1 2 6 4 1 5 7 8 9 9 9 8 8 7 6 6 6 7 6 6 6 5 5 5 4 3 3 3 2 3 3 4 4 4 4 4 3 3 4 4 4
4 5 3 2 3 9 8 5 6 7 7 9 11 11 9 6 5 6 6 6 7 7 6 5 4 4 4 3 3 2 2 2 3 3 4 4 4 4 4 3 3 4 4 4
2 3 3 3 5 8 4 3 3 3 6 5 8 9 7 3 4 4 2 4 5 5 5 4 3 3 3 3 2 2 2 2 3 4 4 4 3 3 3 3 4 3 3 4
5 4 6 7 8 11 5 4 6 5 5 3 7 7 6 6 6 4 2 3 3 4 3 2 2 2 2 2 1 2 2 3 3 3 3 3 3 3 3 3 3 3 3 4
11 9 9 7 8 12 7 10 10 7 1 3 5 6 7 8 7 5 5 4 4 4 3 2 2 2 2 1 2 3 3 3 3 2 2 3 3 3 3 3 3 3 3 3
11 11 8 13 11 2 10 10 7 3 4 4 5 6 7 7 7 7 6 6 5 4 4 2 3 3 2 2 2 4 4 2 2 2 2 3 3 2 2 3 3 3 3 3
8 6 6 9 13 10 10 11 10 9 9 8 7 7 7 8 8 7 6 6 5 5 4 3 3 4 4 3 3 4 3 1 1 2 3 2 2 2 2 2 2 3 3 3
9 10 8 11 10 8 11 14 15 12 10 9 9 8 9 9 9 8 7 6 6 5 4 4 5 5 5 3 3 3 2 1 2 3 2 2 2 2 2 2 2 3 3 4
11 13 13 13 11 10 9 8 10 11 11 11 10 9 8 9 10 8 7 7 6 6 5 4 5 5 5 4 4 3 2 3 3 3 3 2 2 2 2 3 3 4 5 6
Wind_Direction
44 70 72 56 81 146 144 161 185 332 349 327 279 295 305 316 328 334 343 349 348 345 351 356 347 341 340 340 333 312 278 275 247 215 219 214 221 224 223 227 238 235 237 234
93 62 9 34 94 120 143 151 165 348 2 323 289 291 303 309 299 313 321 328 332 337 347 355 355 357 344 330 320 318 306 288 248 236 225 230 223 224 228 231 233 240 244 242
81 42 332 126 94 126 125 197 224 283 333 327 286 254 236 305 308 333 329 325 330 332 334 343 348 350 349 343 331 321 316 320 298 262 228 230 225 233 238 247 248 251 246 244
71 22 56 96 73 285 179 255 232 234 243 253 291 267 219 286 313 345 337 330 330 333 330 336 343 345 345 339 335 327 321 328 338 310 246 216 228 238 248 251 256 261 251 252
66 27 41 57 14 327 101 334 210 233 217 233 232 262 260 309 303 316 325 331 331 334 333 336 342 342 344 347 343 336 339 339 338 334 297 264 261 264 260 256 260 262 258 256
63 41 17 359 335 267 212 157 143 180 218 240 236 252 274 259 286 306 316 331 338 340 341 340 345 353 355 357 353 349 353 349 345 344 331 310 293 289 282 271 273 274 276 274
47 61 32 348 7 65 345 196 179 195 222 243 183 241 261 313 292 292 305 317 331 342 343 344 347 352 354 355 354 352 352 348 347 349 344 332 315 303 295 289 282 283 284 289
56 67 22 8 360 335 334 300 290 256 257 286 220 242 262 344 314 314 311 316 331 341 341 343 344 345 347 349 353 354 352 354 355 353 346 340 331 322 318 318 311 297 292 287
59 63 24 7 352 328 138 95 3 62 53 267 249 269 267 242 323 329 328 330 335 339 341 342 342 345 347 350 350 348 350 355 359 359 1 1 0 353 341 337 327 312 311 311
31 125 338 337 335 49 7 102 169 187 256 266 266 252 257 281 305 316 326 329 330 338 344 344 345 347 350 350 348 353 355 357 358 0 5 5 5 4 358 357 354 346 338 331
20 107 352 360 6 319 95 115 95 107 285 267 274 265 182 254 287 290 301 313 322 328 335 339 343 345 349 352 353 355 357 359 2 1 1 7 6 7 10 9 3 352 348 345
57 99 299 293 345 336 292 237 202 239 233 247 266 276 97 252 288 286 294 310 322 327 331 335 339 343 349 352 352 351 353 355 354 355 2 6 7 10 12 8 1 358 355 347
141 141 155 186 172 156 266 251 228 250 207 217 233 259 98 305 294 289 293 305 315 324 329 333 338 340 341 342 344 346 349 347 346 351 1 5 5 6 5 2 358 360 359 353
127 141 222 253 317 198 244 242 226 210 222 232 238 262 277 288 293 294 295 299 306 317 322 327 329 331 332 333 335 338 340 340 343 351 359 1 357 356 354 354 356 360 359 358
127 187 231 280 288 274 260 250 233 227 230 238 254 263 276 288 289 286 286 288 296 304 309 311 313 316 322 325 326 328 330 337 343 349 353 351 348 348 350 352 354 357 359 357
87 159 201 283 291 287 276 257 241 239 239 243 261 272 277 289 284 276 273 274 278 285 290 297 303 305 308 309 311 317 323 330 335 340 342 343 345 345 346 347 349 352 353 352
147 146 185 270 325 313 269 241 218 219 222 222 239 255 280 282 277 275 276 269 267 274 278 282 285 288 292 296 299 303 311 321 325 329 334 338 337 336 335 336 340 341 340 344
155 139 158 293 350 248 249 118 207 221 242 232 248 265 270 273 287 286 276 268 265 270 275 276 277 280 285 291 294 298 306 312 314 319 324 329 328 326 327 327 329 331 331 333
187 160 159 192 257 276 281 228 192 206 255 232 237 256 268 280 285 273 264 253 255 265 270 272 271 275 283 285 288 289 300 310 312 312 313 316 315 313 314 315 320 323 322 321
126 154 165 181 229 249 245 144 160 172 262 230 217 239 252 229 262 286 289 257 257 262 264 267 272 273 280 289 284 274 293 305 303 304 307 314 311 304 303 306 309 312 312 311
165 181 199 209 237 261 246 156 156 196 246 186 199 217 215 212 242 287 283 265 263 265 263 258 248 249 269 281 248 256 276 284 293 306 315 324 324 313 307 309 311 313 314 315
182 180 192 186 215 247 173 158 196 223 221 193 208 215 220 231 249 261 266 263 264 268 264 250 242 251 260 248 228 250 267 283 299 306 308 313 317 313 312 311 310 312 309 307
209 202 192 200 218 247 174 199 217 228 232 233 232 234 229 240 248 255 258 257 256 257 254 243 237 250 254 238 228 245 269 290 294 293 293 300 309 307 310 303 303 305 304 300
221 208 213 240 251 242 227 234 241 235 239 248 249 248 239 245 251 252 252 251 249 244 242 235 226 239 249 238 234 248 273 282 253 263 281 290 292 299 306 300 294 294 295 295
205 182 209 242 257 268 247 234 237 239 241 246 247 244 243 244 248 246 248 247 244 241 234 225 226 236 244 238 237 244 251 236 243 254 268 279 282 293 296 292 284 283 278 282
196 192 199 229 217 218 237 221 216 224 233 234 236 243 238 233 242 243 244 245 241 236 228 225 230 236 242 236 237 235 223 218 229 246 258 264 272 279 282 288 292 283 280 295